senior outdoor 2007

Marathon women

Filter Top Lists

Filter Top Lists

Limit: 2:45:00

Rank Mark Competitor DOB Nat Pos Venue Date
1 2:20:38 Chunxiu ZHOU 15 NOV 1978 CHN CHN 1 London (GBR) 22 APR 2007
2 2:21:37 Mizuki NOGUCHI 03 JUL 1978 JPN JPN 1 Tokyo (JPN) 18 NOV 2007
3 2:21:45 Gete WAMI 11 DEC 1974 ETH ETH 2 London (GBR) 22 APR 2007
4 2:23:12 Yanan WEI 06 DEC 1981 CHN CHN 1 Seoul (KOR) 18 MAR 2007
5 2:23:31 Salina Jebet KOSGEI 16 NOV 1976 KEN KEN 2 Tokyo (JPN) 18 NOV 2007
6 2:23:48 Yumiko HARA 09 JAN 1982 JPN JPN 1 Osaka (JPN) 28 JAN 2007
7 2:23:55 Constantina DITA-TOMESCU 23 JAN 1970 ROU ROU 3 London (GBR) 22 APR 2007
8 2:24:39 Mari OZAKI 16 JUL 1975 JPN JPN 2 Osaka (JPN) 28 JAN 2007
9 2:24:43 Yuri KANO 27 OCT 1978 JPN JPN 3 Osaka (JPN) 28 JAN 2007
10 2:24:46 Lornah KIPLAGAT 01 MAY 1974 NED NED 5 London (GBR) 22 APR 2007
11 2:24:51 Irina MIKITENKO 23 AUG 1972 GER GER 2 Berlin (GER) 30 SEP 2007
12 2:25:07 Askale Magarsa TAFA 27 SEP 1984 ETH ETH 1 Paris (FRA) 15 APR 2007
13 2:25:08 Souad AIT SALEM 06 JAN 1979 ALG ALG 1 Roma (ITA) 18 MAR 2007
14 2:25:36 Pamela CHEPCHUMBA 08 MAR 1979 KEN KEN 1 Milano (ITA) 02 DEC 2007
15 2:25:41 Mara YAMAUCHI 13 AUG 1973 GBR GBR 6 London (GBR) 22 APR 2007
16 2:26:02 Yong-Ok JONG 24 JAN 1981 PRK PRK 1 Pyongyang (PRK) 08 APR 2007
17 2:26:08 Xiaolin ZHU 20 FEB 1984 CHN CHN 1 Xiamen (CHN) 31 MAR 2007
18 2:26:27 Helah KIPROP 07 APR 1985 KEN KEN 3 Berlin (GER) 30 SEP 2007
19 2:26:37 Hiromi OMINAMI 15 NOV 1975 JPN JPN 1 Rotterdam (NED) 15 APR 2007
20 2:26:46 Hellen Jemaiyo KIMUTAI 28 DEC 1977 KEN KEN 2 Roma (ITA) 18 MAR 2007
21 2:26:52 Dire TUNE 19 JUN 1985 ETH ETH 1 Houston, TX (USA) 14 JAN 2007
22 2:26:54 Irina TIMOFEYEVA 05 APR 1970 RUS RUS 4 Berlin (GER) 30 SEP 2007
23 2:26:56 Kum-Ok KIM 09 DEC 1988 PRK PRK 2 Pyongyang (PRK) 08 APR 2007
24 2:27:02 Lenah CHERUIYOT 01 MAR 1973 KEN KEN 1 Venezia (ITA) 28 OCT 2007
25 2:27:05 Rong CHEN 18 MAY 1988 CHN CHN 1 Beijing (CHN) 21 OCT 2007
26 2:27:20 Yingying ZHANG 04 JAN 1990 CHN CHN 2 Beijing (CHN) 21 OCT 2007
27 2:27:25 Rose CHERUIYOT 21 JUL 1976 KEN KEN 2 Seoul (KOR) 18 MAR 2007
28 2:27:35 Bruna GENOVESE 24 SEP 1976 ITA ITA 3 Tokyo (JPN) 18 NOV 2007
29 2:27:46 Xue BAI 13 DEC 1988 CHN CHN 3 Beijing (CHN) 21 OCT 2007
30 2:27:49 Alevtina IVANOVA 22 MAY 1975 RUS RUS 1 Nagano (JPN) 15 APR 2007
31 2:28:03 Debellu Shitaye GEMECHU 17 JUN 1980 ETH ETH 1 Treviso (ITA) 25 MAR 2007
32 2:28:16 Magdalene CHEMJOR 12 NOV 1978 KEN KEN 1 Amsterdam (NED) 21 OCT 2007
33 2:28:22 Gulnara VYGOVSKAYA 06 SEP 1980 RUS RUS 2 Paris (FRA) 15 APR 2007
34 2:28:25 Bun-Hui JO 29 NOV 1979 PRK PRK 3 Pyongyang (PRK) 08 APR 2007
35 2:28:27 Anne Jepkemboi KOSGEI 1980 KEN KEN 2 Venezia (ITA) 28 OCT 2007
36 2:28:33 Naoko SAKAMOTO 14 NOV 1980 JPN JPN 5 Berlin (GER) 30 SEP 2007
37 2:28:39 Akemi OZAKI 12 OCT 1977 JPN JPN 4 Tokyo (JPN) 18 NOV 2007
38 2:28:47 Yingying ZHU 18 AUG 1988 CHN CHN 4 Beijing (CHN) 21 OCT 2007
39 2:28:49 Yasuko HASHIMOTO 12 AUG 1975 JPN JPN 1 Nagoya (JPN) 11 MAR 2007
40 2:28:53 Helena JAVORNIK 26 MAR 1966 SLO SLO 3 Roma (ITA) 18 MAR 2007
41 2:28:54 Pyo UN-SUK 13 JUN 1981 PRK PRK 4 Pyongyang (PRK) 08 APR 2007
41 2:28:54 Christelle DAUNAY 05 DEC 1974 FRA FRA 3 Paris (FRA) 15 APR 2007
43 2:28:55 Harumi HIROYAMA-SUZUKI 02 SEP 1968 JPN JPN 2 Nagoya (JPN) 11 MAR 2007
44 2:28:56 Melanie KRAUS 24 OCT 1974 GER GER 1 Frankfurt (GER) 28 OCT 2007
45 2:29:01 Silviya SKVORTSOVA 16 NOV 1974 RUS RUS 1 Las Vegas, NV (USA) 02 DEC 2007
46 2:29:11 Asha GIGI 15 OCT 1973 ETH ETH 4 Paris (FRA) 15 APR 2007
47 2:29:12 Svetlana ZAKHAROVA 15 SEP 1970 RUS RUS 2 Frankfurt (GER) 28 OCT 2007
47 2:29:12 Kirsten Melkevik OTTERBU 29 MAY 1970 NOR NOR 3 Frankfurt (GER) 28 OCT 2007
49 2:29:14 Ayelech WORKU 12 JUN 1979 ETH ETH 1 Hamburg (GER) 29 APR 2007
50 2:29:20 Alina IVANOVA 16 MAR 1969 RUS RUS 1 Dublin (IRL) 29 OCT 2007
51 2:29:22 Rose KERUBO NYANGACHA 28 OCT 1976 KEN KEN 2 Hamburg (GER) 29 APR 2007
52 2:29:24 Takami OMINAMI 15 NOV 1975 JPN JPN 3 Nagoya (JPN) 11 MAR 2007
52 2:29:24 Anikó KÁLOVICS 13 MAY 1977 HUN HUN 1 Torino (ITA) 15 APR 2007
54 2:29:27 Weiwei SUN 13 JAN 1985 CHN CHN 2 Xiamen (CHN) 31 MAR 2007
55 2:29:28 Lidia ŞIMON 04 SEP 1973 ROU ROU 1 Shanghai (CHN) 25 NOV 2007
56 2:29:32 Eun-jung LEE 21 APR 1981 KOR KOR 1 Seoul (KOR) 04 NOV 2007
57 2:29:33 Hellen Cherono KOSKEI 22 FEB 1984 KEN KEN 3 Seoul (KOR) 18 MAR 2007
57 2:29:33 Sabrina MOCKENHAUPT 06 DEC 1980 GER GER 1 Köln (GER) 07 OCT 2007
59 2:29:34 Miki OHIRA 28 JUN 1981 JPN JPN 4 Nagoya (JPN) 11 MAR 2007
59 2:29:34 Lyubov MORGUNOVA 14 JAN 1971 RUS RUS 3 Nagano (JPN) 15 APR 2007
61 2:29:37 Luminita ZAITUC 09 OCT 1968 GER GER 1 Düsseldorf (GER) 06 MAY 2007
62 2:29:38 Julia Mombi MURAGA 25 JAN 1985 KEN KEN 5 Nagoya (JPN) 11 MAR 2007
63 2:29:41 Jemima Jelagat SUMGONG 21 DEC 1984 KEN KEN 4 Frankfurt (GER) 28 OCT 2007
64 2:29:47 Benita WILLIS-JOHNSON 06 MAY 1979 AUS AUS 7 London (GBR) 22 APR 2007
65 2:30:05 Mary PTIKANY 1974 KEN KEN 1 Essen (GER) 13 MAY 2007
66 2:30:08 Kim-Chol SUN 21 MAR 1983 PRK PRK 5 Pyongyang (PRK) 08 APR 2007
67 2:30:09 Haruko OKAMOTO 19 AUG 1974 JPN JPN 6 Nagoya (JPN) 11 MAR 2007
68 2:30:10 Dorota GRUCA 05 DEC 1970 POL POL 2 Amsterdam (NED) 21 OCT 2007
69 2:30:11 Helena Loshanyang KIROP 09 SEP 1976 KEN KEN 2 Rotterdam (NED) 15 APR 2007
70 2:30:12 Tabitha TSATSA 18 SEP 1972 ZIM ZIM 4 Seoul (KOR) 18 MAR 2007
71 2:30:14 Beáta RAKONCZAI 25 JUN 1977 HUN HUN 2 Houston, TX (USA) 14 JAN 2007
72 2:30:30 Shiru DERIBA 1985 ETH ETH 4 Amsterdam (NED) 21 OCT 2007
73 2:30:31 Natalya VOLGINA 15 MAR 1977 RUS RUS 5 Roma (ITA) 18 MAR 2007
74 2:30:34 Yuko MANABE 08 FEB 1979 JPN JPN 7 Nagoya (JPN) 11 MAR 2007
75 2:30:37 Catherine NDEREBA 21 JUL 1972 KEN KEN 1 Osaka (JPN) 02 SEP 2007
76 2:30:40 Liza HUNTER-GALVAN 25 JUN 1969 NZL NZL 5 Amsterdam (NED) 21 OCT 2007
77 2:30:43 Hayley HAINING 06 MAR 1972 GBR GBR 6 Berlin (GER) 30 SEP 2007
78 2:30:44 Liz YELLING 05 DEC 1974 GBR GBR 8 London (GBR) 22 APR 2007
79 2:30:46 Beatrice OMWANZA 24 FEB 1974 KEN KEN 3 Hamburg (GER) 29 APR 2007
80 2:30:55 Reiko TOSA 11 JUN 1976 JPN JPN 3 Osaka (JPN) 02 SEP 2007
81 2:30:56 Workenesh TOLA 06 JUN 1977 ETH ETH 5 Seoul (KOR) 18 MAR 2007
82 2:31:02 Hitomi NIIYA 26 FEB 1988 JPN JPN 1 Tokyo (JPN) 18 FEB 2007
82 2:31:02 Alevtina BIKTIMIROVA 10 SEP 1982 RUS RUS 3 Rotterdam (NED) 15 APR 2007
84 2:31:04 Kazue OGOSHI 02 MAR 1981 JPN JPN 4 Osaka (JPN) 28 JAN 2007
85 2:31:08 Mika OKUNAGA 27 OCT 1982 JPN JPN 8 Nagoya (JPN) 11 MAR 2007
86 2:31:12 Irene JEROTICH 08 SEP 1974 KEN KEN 5 Paris (FRA) 15 APR 2007
87 2:31:13 Živilé BALČIUNAITÉ 03 APR 1979 LTU LTU 4 Hamburg (GER) 29 APR 2007
88 2:31:14 Shujing ZHANG 13 SEP 1978 CHN CHN 3 Xiamen (CHN) 31 MAR 2007
88 2:31:14 An-Un SUK PRK PRK 6 Pyongyang (PRK) 08 APR 2007
90 2:31:16 Maria Dolores VALENCIA JIMÉNEZ 06 SEP 1975 MEX MEX 1 Torreón (MEX) 04 MAR 2007
91 2:31:25 Leila AMAN 24 NOV 1977 ETH ETH 5 Hamburg (GER) 29 APR 2007
92 2:31:29 Zhang XIAN CHN CHN 6 Beijing (CHN) 21 OCT 2007
93 2:31:31 Marisa BARROS 25 FEB 1980 POR POR 1 Porto (POR) 21 OCT 2007
94 2:31:35 Yuka EZAKI 20 OCT 1981 JPN JPN 5 Osaka (JPN) 28 JAN 2007
95 2:31:37 Tomoko SHIMOKAWA 21 NOV 1986 JPN JPN 9 Nagoya (JPN) 11 MAR 2007
96 2:31:40 Kiyoko SHIMAHARA 22 DEC 1976 JPN JPN 6 Osaka (JPN) 02 SEP 2007
97 2:31:41 Leonor CARNEIRO 18 MAY 1978 POR POR 8 Berlin (GER) 30 SEP 2007
98 2:31:42 Larisa ZYUZKO 27 APR 1969 RUS RUS 2 Dublin (IRL) 29 OCT 2007
99 2:31:43 Adenech ZEKIROS 26 MAR 1982 ETH ETH 1 Tempe, AZ (USA) 13 JAN 2007
99 2:31:43 Soumiya LAABANI 03 FEB 1975 MAR MAR 2 Treviso (ITA) 25 MAR 2007